sat.trackr.live / text

‹ back to catalog

GEO-KOMPSAT-2A

NORAD 43823 · 2018-100A

PAYLOAD ACTIVE UNKNOWN

§ Identity

Operator
Country
SKOR
Launch date
2018-12-04
Launch site
FRGUI
Launch vehicle
Mass (kg)
RCS (m²)

Purposes: comms, earth_obs

External: N2YO · Heavens-Above · Gunter

§ Orbital elements

Epoch: 2026-05-25T04:21:06.264000Z

Period
1,436.11 min
Inclination
0.0498°
Eccentricity
0.0002201
Mean motion
1.00270978 rev/d
Perigee alt
35,777.5 km
Apogee alt
35,796.1 km
Semi-major
42,165.0 km
B*
0.0000e+0
RAAN
114.8129°
Arg perigee
321.1517°
Mean anomaly
0.3472°
Rev number
2,739

§ Raw data

GEO-KOMPSAT-2A1 43823U 18100A   26145.18132250 -.00000346  00000+0  00000+0 0  99922 43823   0.0498 114.8129 0002201 321.1517   0.3472  1.00270978 27395

JSON: /api/v1/satellites/43823 · /tle

For live sub-satellite position, see the globe view (requires WebGL).

§ Visibility from observer

Set your observer location to see the next 7 days of passes ≥ 10°. The values pass through the URL so the page stays shareable.

No JS? Fill the form by hand. The geolocation button needs JavaScript.